Location: La Coruña
(43.3623°N, 8.4115°W)
Time: 19:47:18
(UTC+01:00)

STARLINK-1098 - Pass Details

Date: 25 January 2020
Orbit: 531 x 533 km, 53.0° (Epoch: 18 February)

Event Time Altitude Azimuth Distance (km) Brightness Sun altitude
Rises 19:47:15 0° 299° (WNW) 2,642 7.9 -13.1°
Reaches altitude 10° 19:49:54 10° 317° (NW) 1,747 6.6 -13.6°
Maximum altitude 19:52:56 21° 7° (N) 1,206 5.2 -14.1°
Enters shadow 19:54:18 17° 35° (NE) 1,332 5.1 -14.4°
